Regional Weather Roundup
Issued by NWS

Home | Current Version | Previous Version | Text Only | Print | Product List | Glossary On
Versions: 1 2 3 4 5 6 7 8 9 10 11 12 13 14 15 16 17 18 19 20 21 22 23 24 25 26 27 28 29 30 31 32 33 34 35 36 37 38 39 40 41 42 43 44 45 46 47 48 49 50
000
ASUS43 KLSX 270307
RWRMO

WEATHER SUMMARY FOR MISSOURI
NATIONAL WEATHER SERVICE SPRINGFIELD MO
900 PM CST FRI DEC 26 2014

NOTE: "FAIR" INDICATES FEW OR NO CLOUDS BELOW 12,000 FEET WITH NO
       SIGNIFICANT WEATHER AND/OR OBSTRUCTIONS TO VISIBILITY.
       CURRENT SKY AND/OR WEATHER CONDITIONS ARE NOT AVAILABLE FOR
       CHILLICOTHE AND FARMINGTON.

MOZ001>031-035>038-043-044-053-054-270400-
...NORTHERN AND WESTERN MISSOURI...

CITY           SKY/WX    TMP DP  RH WIND       PRES   REMARKS
KANSAS CTY INT CLOUDY    39  34  82 N3        29.97F
KANSAS C DTWN  CLOUDY    41  34  76 CALM      29.98S
LEE`S SUMMIT   LGT RAIN  41  37  86 N6        29.97S
ST JOSEPH      CLOUDY    37  33  85 NW6       30.00R
CHILLICOTHE      N/A     45  39  79 CALM      29.97S
KIRKSVILLE     LGT RAIN  47  45  93 N3        29.95S FOG

$$
MOZ066>068-077>081-088>096-101>105-270400-
...SOUTHWEST MISSOURI...

CITY           SKY/WX    TMP DP  RH WIND       PRES   REMARKS
SPRINGFIELD    CLOUDY    49  47  93 S14       30.00R
JOPLIN         CLOUDY    52  50  93 S9        29.99R

$$
MOZ032>034-039>042-045>050-055>058-069>072-270400-
...CENTRAL MISSOURI...

CITY           SKY/WX    TMP DP  RH WIND       PRES   REMARKS
COLUMBIA       CLOUDY    50  48  93 S14       29.99R
JEFFERSON CITY CLOUDY    51  48  89 S8        30.01R
ROLLA          LGT RAIN  47  43  86 S10       30.01R FOG
SEDALIA        CLOUDY    54  48  80 S10       29.98R
WARRENSBURG    LGT RAIN  45  43  93 CALM      29.96S
OSAGE BEACH    CLOUDY    50  45  81 S12       30.01R

$$
MOZ051-052-059>065-270400-
...EAST CENTRAL MISSOURI...

CITY           SKY/WX    TMP DP  RH WIND       PRES   REMARKS
ST LOUIS INTL  MOCLDY    53  40  61 S10       30.04S
SPIRIT OF STL  CLOUDY    53  40  61 S7        30.02S
ST CHARLES     CLOUDY    52  42  69 S10       30.03S

$$
MOZ072>076-082>087-097>100-106>115-270400-
...SOUTH CENTRAL AND SOUTHEAST MISSOURI...

CITY           SKY/WX    TMP DP  RH WIND       PRES   REMARKS
CAPE GIRARDEAU CLOUDY    49  41  74 SE10      30.13S
FARMINGTON     CLOUDY    48  41  76 SE14G21   30.09S
POPLAR BLUFF   CLOUDY    50  39  66 S6        30.12R
WEST PLAINS    LGT RAIN  45  43  93 SE9       30.06S FOG

$$


USA.gov is the U.S. government's official web portal to all federal, state and local government web resources and services.